Regional Weather Roundup
Issued by NWS

Home | Current Version | Previous Version | Text Only | Print | Product List | Glossary On
Versions: 1 2 3 4 5 6 7 8 9 10 11 12 13 14 15 16 17 18 19 20 21 22 23 24 25 26 27 28 29 30 31 32 33 34 35 36 37 38 39 40 41 42 43 44 45 46 47 48 49 50
000
ASUS45 KBOU 040807
RWRCO

WEATHER ROUNDUP FOR COLORADO
NATIONAL WEATHER SERVICE DENVER/BOULDER CO
200 AM MDT MON MAY 04 2015

NOTE: "FAIR" INDICATES FEW OR NO CLOUDS BELOW 12000 FEET WITH NO
SIGNIFICANT WEATHER AND/OR OBSTRUCTIONS TO VISIBILITY.

COZ001>005-013-030-031-040900-
...NORTHWEST COLORADO...

CITY           SKY/WX    TMP DP  RH WIND       PRES   REMARKS
CRAIG          CLOUDY    51  42  71 E6        30.07F
HAYDEN         CLOUDY    46  39  76 SE9       30.09S
MEEKER         MOCLDY    48  42  80 NE7       30.07F
MOUNT WERNER   NOT AVBL
STEAMBOAT SPGS CLOUDY    46  37  70 CALM      30.10F
WALDEN         MOCLDY    37  34  87 NW3       30.14F
$$

COZ006>008-011-040900-
...WEST CENTRAL VALLEYS...

CITY           SKY/WX    TMP DP  RH WIND       PRES   REMARKS
GRAND JUNCTION PTCLDY    56  41  57 E15       30.00S
MONTROSE       PTCLDY    47  38  71 S6        30.07F
EAGLE          MOCLDY    45  43  93 CALM      30.14S
RIFLE          LGT RAIN  51  47  86 S7        30.08F
DELTA          NOT AVBL
NUCLA          PTCLDY    52  36  54 E9        30.07F
$$

COZ017>023-064>068-040900-
...SOUTHWEST COLORADO...

CITY           SKY/WX    TMP DP  RH WIND       PRES   REMARKS
DURANGO        CLEAR     43  37  79 NW5       30.08F
CORTEZ         CLEAR     44  36  73 N6        30.05S
PAGOSA SPRINGS CLEAR     39  38  94 CALM      30.14F
TELLURIDE      PTCLDY    40  36  88 SE5       30.20S
WOLF CREEK PAS NOT AVBL
$$

COZ009-010-012-014-032>034-037-058>063-040900-
...CENTRAL COLORADO...

CITY           SKY/WX    TMP DP  RH WIND       PRES   REMARKS
ASPEN          LGT RAIN  43  37  79 SE8       30.14F
BUENA VISTA    NOT AVBL
COPPER MTN     MOCLDY    36  28  75 S8        30.30F
BERTHOUD PASS  HAZE      28  19  69 E22G29    30.33F VSB<1/4 WCI  15
COTTONWOOD PAS LGT RAIN  39  36  87 W5        30.24F
GUNNISON       CLOUDY    43  36  75 N5        30.19F
KREMMLING      CLOUDY    41  34  75 CALM      30.14F
LEADVILLE      CLOUDY    35  33  92 NW3       30.21F
MONARCH PASS   SNOW      32  30  93 MISG      30.41S VSB<1/4
SALIDA         CLOUDY    49  41  75 CALM      30.23S
SUNLIGHT       CLOUDY    36  36 100 CALM      30.27F
WILKERSON PASS SNOW      32  32 100 E6        30.31F VSB<1/4 WCI  26
$$

COZ069>075-040900-
...SAN LUIS VALLEY/SANGRE DE CRISTO MOUNTAINS...

CITY           SKY/WX    TMP DP  RH WIND       PRES   REMARKS
ALAMOSA        PTCLDY    42  37  82 SW8       30.13F
LA VETA PASS   FOG       34  34 100 MISG      30.23F VSB 1/2
SAGUACHE       MOCLDY    43  36  75 NW10      30.16F
$$

COZ035-036-038>040-040900-
...NORTHERN COLORADO FRONT RANGE...

CITY           SKY/WX    TMP DP  RH WIND       PRES   REMARKS
DENVER INTL AP CLOUDY    50  46  86 E7        30.09S
DMNS CITY PARK   N/A     53  43  68 SW2G8     30.08S
AURORA         NOT AVBL
FRONT RANGE AP NOT AVBL
ERIE MUNI ARPT CLOUDY    49  46  88 CALM      30.07S
BOULDER MUN AP CLOUDY    54  41  62 SW6       30.06F
CENTENNIAL     CLOUDY    50  44  80 S3        30.10S
BROOMFIELD     CLOUDY    52  43  71 NE3       30.09S
FORT COLLINS   MOCLDY    52  45  76 E12       30.09S
LONGMONT       CLOUDY    51  47  86 CALM      30.08F
$$

COZ041-046-047-076>085-087-088-040900-
...PIKES PEAK/PALMER DIVIDE AND SOUTHERN FOOTHILLS...

CITY           SKY/WX    TMP DP  RH WIND       PRES   REMARKS
COLO. SPRINGS  LGT RAIN  49  45  86 NW12      30.12F FOG
A. F. ACADEMY  RAIN      47  46  95 CALM      30.13F FOG
ELLICOTT       CLOUDY   N/A N/A N/A CALM      30.10R
FALCON         CLOUDY    48  43  82 W8        30.15F
FORT CARSON    NOT AVBL
LIMON          CLOUDY    52  44  74 N7        30.07F
MONUMENT HILL  DRIZZLE   45  41  87 W6        30.13F
TRINIDAD       MOCLDY    50  43  77 NW10      30.07F
$$

COZ042>045-048>051-090-091-040900-
...NORTHEAST COLORADO...

CITY           SKY/WX    TMP DP  RH WIND       PRES   REMARKS
GREELEY ARPT   CLOUDY    52  45  76 E8        30.09F
AKRON          CLOUDY    52  40  63 E12       30.08F
BURLINGTON     LGT RAIN  55  49  80 NE10      30.04F
WRAY           MOCLDY    55  40  55 NE9       30.06S
STERLING       MOCLDY    55  41  58 E5        30.08S
HOLYOKE        NOT AVBL
FORT MORGAN    LGT RAIN  51  -8   8 E6        30.11S
$$

COZ086-089-092>099-040900-
...SOUTHEAST COLORADO...

CITY           SKY/WX    TMP DP  RH WIND       PRES   REMARKS
PUEBLO         CLOUDY    57  46  66 NW7       30.04F
LA JUNTA       MOCLDY    56  49  77 N7        30.00R
LAMAR          PTCLDY    56  49  77 E7        29.97R
SPRINGFIELD      N/A     56  48  74 S8        30.00F
$$



USA.gov is the U.S. government's official web portal to all federal, state and local government web resources and services.